TimeCST,TemperatureF,Dew PointF,Humidity,Sea Level PressureIn,VisibilityMPH,Wind Direction,Wind SpeedMPH,Gust SpeedMPH,PrecipitationIn,Events,Conditions,WindDirDegrees,DateUTC
12:15 AM,28.4,19.4,69,30.00,10.0,WNW,12.7,19.6,N/A,,Overcast,290,2012-12-29 06:15:00
12:35 AM,28.4,19.4,69,30.00,10.0,WNW,12.7,16.1,N/A,,Overcast,290,2012-12-29 06:35:00
12:55 AM,28.4,19.4,69,30.01,10.0,WNW,13.8,17.3,N/A,,Overcast,290,2012-12-29 06:55:00
1:15 AM,28.4,19.4,69,30.01,10.0,West,11.5,16.1,N/A,,Overcast,280,2012-12-29 07:15:00
1:35 AM,28.4,19.4,69,30.01,10.0,WNW,11.5,-,N/A,Snow,Light Snow,300,2012-12-29 07:35:00
1:55 AM,28.4,21.2,74,30.02,7.0,WNW,10.4,13.8,N/A,Snow,Light Snow,290,2012-12-29 07:55:00
2:15 AM,26.6,21.2,80,30.03,7.0,West,12.7,23.0,N/A,Snow,Light Snow,280,2012-12-29 08:15:00
2:35 AM,26.6,17.6,69,30.04,10.0,West,13.8,20.7,N/A,,Overcast,270,2012-12-29 08:35:00
2:55 AM,26.6,17.6,69,30.05,10.0,West,15.0,18.4,N/A,,Overcast,280,2012-12-29 08:55:00
3:15 AM,26.6,15.8,64,30.05,10.0,West,11.5,17.3,N/A,,Overcast,270,2012-12-29 09:15:00
3:35 AM,24.8,17.6,74,30.06,10.0,WNW,13.8,21.9,N/A,,Overcast,290,2012-12-29 09:35:00
3:55 AM,24.8,15.8,69,30.06,10.0,West,11.5,20.7,N/A,,Overcast,280,2012-12-29 09:55:00
4:15 AM,24.8,17.6,74,30.06,10.0,West,11.5,-,N/A,,Overcast,280,2012-12-29 10:15:00
4:35 AM,24.8,17.6,74,30.07,7.0,West,13.8,19.6,N/A,Snow,Light Snow,270,2012-12-29 10:35:00
4:55 AM,24.8,17.6,74,30.07,7.0,West,10.4,20.7,N/A,Snow,Light Snow,280,2012-12-29 10:55:00
5:15 AM,24.8,17.6,74,30.08,7.0,West,11.5,17.3,N/A,Snow,Light Snow,280,2012-12-29 11:15:00
5:35 AM,24.8,19.4,80,30.09,7.0,West,10.4,-,N/A,Snow,Light Snow,270,2012-12-29 11:35:00
5:55 AM,24.8,19.4,80,30.10,7.0,West,12.7,19.6,N/A,,Overcast,280,2012-12-29 11:55:00
6:15 AM,24.8,19.4,80,30.12,7.0,West,10.4,16.1,N/A,,Overcast,280,2012-12-29 12:15:00
6:35 AM,24.8,19.4,80,30.13,7.0,WNW,11.5,18.4,N/A,,Overcast,290,2012-12-29 12:35:00
6:55 AM,24.8,19.4,80,30.14,7.0,West,15.0,19.6,N/A,,Overcast,280,2012-12-29 12:55:00
7:15 AM,24.8,19.4,80,30.14,7.0,West,13.8,20.7,N/A,,Overcast,270,2012-12-29 13:15:00
7:35 AM,24.8,19.4,80,30.15,7.0,WNW,16.1,-,N/A,,Overcast,300,2012-12-29 13:35:00
7:55 AM,24.8,19.4,80,30.16,7.0,West,9.2,17.3,N/A,,Overcast,280,2012-12-29 13:55:00
8:15 AM,24.8,19.4,80,30.18,7.0,West,13.8,17.3,N/A,,Overcast,270,2012-12-29 14:15:00
8:35 AM,24.8,17.6,74,30.19,7.0,West,17.3,21.9,N/A,,Overcast,270,2012-12-29 14:35:00
8:55 AM,24.8,17.6,74,30.20,10.0,West,9.2,-,N/A,,Overcast,270,2012-12-29 14:55:00
9:15 AM,24.8,17.6,74,30.21,10.0,West,10.4,-,N/A,,Overcast,270,2012-12-29 15:15:00
9:35 AM,24.8,17.6,74,30.22,7.0,West,13.8,24.2,N/A,,Overcast,280,2012-12-29 15:35:00
9:55 AM,23.0,17.6,80,30.24,7.0,West,16.1,21.9,N/A,,Overcast,280,2012-12-29 15:55:00
10:15 AM,24.8,17.6,74,30.25,7.0,West,11.5,17.3,N/A,,Overcast,270,2012-12-29 16:15:00
10:35 AM,24.8,17.6,74,30.25,7.0,West,11.5,-,N/A,,Overcast,270,2012-12-29 16:35:00
10:55 AM,24.8,17.6,74,30.26,7.0,West,13.8,21.9,N/A,,Overcast,270,2012-12-29 16:55:00
11:15 AM,24.8,17.6,74,30.26,10.0,West,15.0,20.7,N/A,,Overcast,260,2012-12-29 17:15:00
11:35 AM,26.6,17.6,69,30.26,10.0,West,16.1,-,N/A,,Overcast,280,2012-12-29 17:35:00
11:55 AM,28.4,17.6,64,30.25,10.0,West,9.2,-,N/A,,Overcast,280,2012-12-29 17:55:00
12:15 PM,28.4,17.6,64,30.24,10.0,WSW,10.4,16.1,N/A,,Mostly Cloudy,250,2012-12-29 18:15:00
12:55 PM,30.2,17.6,60,30.23,10.0,West,10.4,18.4,N/A,,Clear,260,2012-12-29 18:55:00
1:15 PM,30.2,17.6,60,30.23,10.0,West,16.1,19.6,N/A,,Scattered Clouds,260,2012-12-29 19:15:00
1:35 PM,30.2,15.8,55,30.22,10.0,WSW,12.7,18.4,N/A,,Clear,250,2012-12-29 19:35:00
1:55 PM,32.0,15.8,51,30.22,10.0,WSW,13.8,20.7,N/A,,Clear,240,2012-12-29 19:55:00
2:15 PM,32.0,15.8,51,30.23,10.0,West,11.5,17.3,N/A,,Clear,260,2012-12-29 20:15:00
2:35 PM,32.0,14.0,48,30.23,10.0,West,8.1,19.6,N/A,,Clear,270,2012-12-29 20:35:00
2:55 PM,32.0,14.0,48,30.24,10.0,WSW,12.7,-,N/A,,Clear,250,2012-12-29 20:55:00
3:15 PM,32.0,14.0,48,30.25,10.0,West,10.4,-,N/A,,Clear,270,2012-12-29 21:15:00
3:35 PM,32.0,14.0,48,30.24,10.0,West,10.4,-,N/A,,Clear,280,2012-12-29 21:35:00
3:55 PM,32.0,14.0,48,30.25,10.0,West,9.2,-,N/A,,Clear,260,2012-12-29 21:55:00
4:15 PM,32.0,15.8,51,30.25,10.0,West,9.2,-,N/A,,Clear,280,2012-12-29 22:15:00
4:35 PM,32.0,15.8,51,30.26,10.0,West,8.1,-,N/A,,Clear,270,2012-12-29 22:35:00
4:55 PM,32.0,15.8,51,30.26,10.0,West,6.9,-,N/A,,Clear,260,2012-12-29 22:55:00
5:15 PM,30.2,15.8,55,30.27,10.0,West,4.6,-,N/A,,Clear,260,2012-12-29 23:15:00
5:35 PM,30.2,15.8,55,30.28,10.0,WSW,5.8,-,N/A,,Clear,250,2012-12-29 23:35:00
5:55 PM,30.2,15.8,55,30.29,10.0,WSW,5.8,-,N/A,,Clear,240,2012-12-29 23:55:00
6:15 PM,30.2,15.8,55,30.29,10.0,SW,4.6,-,N/A,,Clear,230,2012-12-30 00:15:00
6:35 PM,28.4,15.8,59,30.31,10.0,SW,4.6,-,N/A,,Clear,230,2012-12-30 00:35:00
6:55 PM,28.4,15.8,59,30.31,10.0,SW,4.6,-,N/A,,Clear,230,2012-12-30 00:55:00
7:15 PM,28.4,15.8,59,30.32,10.0,SW,5.8,-,N/A,,Clear,220,2012-12-30 01:15:00
7:35 PM,28.4,15.8,59,30.31,10.0,SW,4.6,-,N/A,,Clear,220,2012-12-30 01:35:00
7:55 PM,28.4,15.8,59,30.32,10.0,SW,5.8,-,N/A,,Clear,230,2012-12-30 01:55:00
8:15 PM,28.4,15.8,59,30.32,10.0,SW,5.8,-,N/A,,Clear,230,2012-12-30 02:15:00
8:35 PM,28.4,15.8,59,30.32,10.0,SW,5.8,-,N/A,,Clear,220,2012-12-30 02:35:00
8:55 PM,28.4,15.8,59,30.32,10.0,SW,5.8,-,N/A,,Clear,230,2012-12-30 02:55:00
9:15 PM,28.4,15.8,59,30.32,10.0,SW,5.8,-,N/A,,Clear,230,2012-12-30 03:15:00
9:35 PM,28.4,15.8,59,30.32,10.0,SW,5.8,-,N/A,,Clear,230,2012-12-30 03:35:00
9:55 PM,28.4,15.8,59,30.31,10.0,SW,5.8,-,N/A,,Clear,230,2012-12-30 03:55:00
10:15 PM,28.4,15.8,59,30.31,10.0,SW,5.8,-,N/A,,Clear,220,2012-12-30 04:15:00
10:35 PM,28.4,15.8,59,30.32,10.0,SW,6.9,-,N/A,,Clear,220,2012-12-30 04:35:00
10:55 PM,28.4,17.6,64,30.32,10.0,SW,6.9,-,N/A,,Clear,220,2012-12-30 04:55:00
11:15 PM,28.4,17.6,64,30.33,10.0,SW,6.9,-,N/A,,Clear,220,2012-12-30 05:15:00
11:35 PM,28.4,17.6,64,30.33,10.0,SW,9.2,-,N/A,,Clear,220,2012-12-30 05:35:00